ONEWEB-0008, 44059

Orbit data source: Space-Track

ONEWEB-0008, 44059 is a payload satellite owned by One Web (UK) in LEO that was launched on Wed, 27 Feb 2019 UTC via a SOYUZ-ST-B launch vehicle from the French Guiana (FRGUI). Payload-class satellites include a variety of spacecraft equipped with specific instruments for various scientific and technological missions. These include communications satellites like Starlink; space stations such as the ISS; scientific satellites like the Hubble; Earth observation satellites from companies like Planet Labs, Umbra, and HawkEye 360; GPS; miniature CubeSats for education and research; and military/defense satellites.

Loading next visibility...
Identifier
44059, 2019-010C
Orbit
LEO
Country
Flag of UKUK
Related business
Manufacturer
Airbus/Toulouse
Mission
Operational Commercial Communications
Bus & Motor
ARROW, Unknown motor
Mass
148 kg wet, ~140 kg dry
Launch date (UTC)
2019-02-27 (7 years ago)
Launch vehicle
SOYUZ-ST-B
Launch site
French Guiana (FRGUI)
Object type
Payload
Rocket body
Debris
Shape & HBR
Trap Box + 2 Pan, 6.7 m
Radar Cross Section
3.464 m², Large (>1 m²)

Expand to show TLE details & history
Last TLE update: 11 hours ago

TLE from 11 hours ago
0 ONEWEB-0008
1 44059U 19010C   26038.12104722  .00000077  00000-0  16731-3 0  9996
2 44059  87.9003 254.6680 0001712  89.3429 270.7898 13.16594715334618
Epoch: 2026-02-07T02:54Z
TLE epoch observation values (Epoch: 2026-02-07T02:54:18.479Z)
Latitude
-0.00005°
Longitude
73.84188°
Altitude
1,200.634 km
Speed
7.254 km/s
True Right ascension
16h 58m 40s
True Declination
0° 00' 00"
Sunlit
Object was in daylight at epoch
Visualization orbit readout
Latitude
Unknown
Longitude
Unknown
Altitude
Unknown
Speed
Unknown
Apparent Right ascension
Unknown
Apparent Declination
Unknown
Sunlit
N/A
Visualization observer readout
Local Sidereal Time
16:22:49
Azimuth
Unknown
Elevation
Unknown
Doppler factor
Unknown
Orbital elements
Apogee altitude
1,196.162 km
Perigee altitude
1,193.569 km
Semi-major axis
7,573.002 km
Eccentricity
0.00017
Inclination
87.9003°
RAAN
254.668°
Arg. of periapsis
89.3429°
True anomaly
270.77018°
Mean anomaly
270.7898°
Eccentric anomaly
270.77999°
Mean motion
3.29337 °/min
Orbital period
109.31 mins
BSTAR
0.00016731
Loading maneuver chart data...
Computing Atmospheric mass density...
Loading historical data...
Loading historical data...
Loading historical data...
Loading historical data...
Loading historical data...
Loading historical data...
Loading historical data...
Other satellites on launch #10 in the year 2019 (2019-02-27 UTC)

Documentation

Showing up to 5 results
|